Time,TemperatureF,DewpointF,PressureIn,WindDirection,WindDirectionDegrees,WindSpeedMPH,WindSpeedGustMPH,Humidity,HourlyPrecipIn,Conditions,Clouds,dailyrainin,SoftwareType,DateUTC
2013-09-12 00:04:00,74.0,71.0,29.92,WNW,292,0.0,0.0,90,0.00,,,0.00,weatherlink.com 1.10,2013-09-12 04:04:00,
2013-09-12 00:19:00,73.8,71.0,29.92,WNW,292,0.0,0.0,90,0.00,,,0.00,weatherlink.com 1.10,2013-09-12 04:19:00,
2013-09-12 00:34:00,73.3,71.0,29.92,WNW,292,0.0,2.0,91,0.00,,,0.00,weatherlink.com 1.10,2013-09-12 04:34:00,
2013-09-12 00:49:00,72.9,71.0,29.91,WNW,292,0.0,0.0,92,0.00,,,0.00,weatherlink.com 1.10,2013-09-12 04:49:00,
2013-09-12 01:04:00,72.6,70.0,29.91,WNW,292,0.0,0.0,92,0.00,,,0.00,weatherlink.com 1.10,2013-09-12 05:04:00,
2013-09-12 01:19:00,72.4,70.0,29.91,WNW,292,0.0,0.0,92,0.00,,,0.00,weatherlink.com 1.10,2013-09-12 05:19:00,
2013-09-12 01:34:00,72.1,70.0,29.90,WNW,292,0.0,0.0,93,0.00,,,0.00,weatherlink.com 1.10,2013-09-12 05:34:00,
2013-09-12 01:49:00,71.7,70.0,29.90,WNW,292,0.0,0.0,93,0.00,,,0.00,weatherlink.com 1.10,2013-09-12 05:49:00,
2013-09-12 02:05:00,71.4,69.0,29.90,WNW,292,0.0,0.0,93,0.00,,,0.00,weatherlink.com 1.10,2013-09-12 06:05:00,
2013-09-12 02:20:00,71.1,69.0,29.89,WNW,292,0.0,0.0,94,0.00,,,0.00,weatherlink.com 1.10,2013-09-12 06:20:00,
2013-09-12 02:35:00,70.8,69.0,29.88,WNW,292,0.0,0.0,94,0.00,,,0.00,weatherlink.com 1.10,2013-09-12 06:35:00,
2013-09-12 02:50:00,70.6,69.0,29.88,WNW,292,0.0,0.0,94,0.00,,,0.00,weatherlink.com 1.10,2013-09-12 06:50:00,
2013-09-12 03:05:00,70.3,69.0,29.88,WNW,292,0.0,0.0,94,0.00,,,0.00,weatherlink.com 1.10,2013-09-12 07:05:00,
2013-09-12 03:20:00,70.1,69.0,29.88,WNW,292,0.0,0.0,95,0.00,,,0.00,weatherlink.com 1.10,2013-09-12 07:20:00,
2013-09-12 03:35:00,69.8,68.0,29.88,WNW,292,0.0,0.0,95,0.00,,,0.00,weatherlink.com 1.10,2013-09-12 07:35:00,
2013-09-12 03:50:00,69.7,68.0,29.88,WNW,292,0.0,0.0,95,0.00,,,0.00,weatherlink.com 1.10,2013-09-12 07:50:00,
2013-09-12 04:05:00,69.8,69.0,29.88,WNW,292,0.0,0.0,96,0.00,,,0.00,weatherlink.com 1.10,2013-09-12 08:05:00,
2013-09-12 04:20:00,69.5,68.0,29.87,WNW,292,0.0,0.0,95,0.00,,,0.00,weatherlink.com 1.10,2013-09-12 08:20:00,
2013-09-12 04:35:00,69.2,68.0,29.87,WNW,292,0.0,0.0,95,0.00,,,0.00,weatherlink.com 1.10,2013-09-12 08:35:00,
2013-09-12 04:50:00,69.0,68.0,29.87,WNW,292,0.0,0.0,95,0.00,,,0.00,weatherlink.com 1.10,2013-09-12 08:50:00,
2013-09-12 05:05:00,68.9,68.0,29.87,WNW,292,0.0,0.0,95,0.00,,,0.00,weatherlink.com 1.10,2013-09-12 09:05:00,
2013-09-12 05:20:00,68.8,67.0,29.87,WNW,292,0.0,0.0,95,0.00,,,0.00,weatherlink.com 1.10,2013-09-12 09:20:00,
2013-09-12 05:35:00,68.6,67.0,29.87,WNW,292,0.0,0.0,95,0.00,,,0.00,weatherlink.com 1.10,2013-09-12 09:35:00,
2013-09-12 05:50:00,68.5,67.0,29.87,WNW,292,0.0,0.0,95,0.00,,,0.00,weatherlink.com 1.10,2013-09-12 09:50:00,
2013-09-12 06:05:00,68.6,68.0,29.87,WNW,292,0.0,0.0,96,0.00,,,0.00,weatherlink.com 1.10,2013-09-12 10:05:00,
2013-09-12 06:20:00,68.6,68.0,29.87,WNW,292,0.0,0.0,96,0.00,,,0.00,weatherlink.com 1.10,2013-09-12 10:20:00,
2013-09-12 06:35:00,68.6,67.0,29.87,WNW,292,0.0,0.0,95,0.00,,,0.00,weatherlink.com 1.10,2013-09-12 10:35:00,
2013-09-12 06:50:00,68.6,67.0,29.87,WNW,292,0.0,0.0,95,0.00,,,0.00,weatherlink.com 1.10,2013-09-12 10:50:00,
2013-09-12 07:05:00,68.6,67.0,29.87,WNW,292,0.0,0.0,95,0.00,,,0.00,weatherlink.com 1.10,2013-09-12 11:05:00,
2013-09-12 07:20:00,68.8,68.0,29.87,WNW,292,0.0,0.0,96,0.00,,,0.00,weatherlink.com 1.10,2013-09-12 11:20:00,
2013-09-12 07:35:00,69.3,68.0,29.87,WNW,292,0.0,0.0,96,0.00,,,0.00,weatherlink.com 1.10,2013-09-12 11:35:00,
2013-09-12 07:50:00,70.2,69.0,29.87,WNW,292,0.0,0.0,96,0.00,,,0.00,weatherlink.com 1.10,2013-09-12 11:50:00,
2013-09-12 08:05:00,71.5,70.0,29.87,NW,313,0.0,0.0,94,0.00,,,0.00,weatherlink.com 1.10,2013-09-12 12:05:00,
2013-09-12 08:20:00,73.4,71.0,29.86,SSW,200,0.0,2.0,91,0.00,,,0.00,weatherlink.com 1.10,2013-09-12 12:20:00,
2013-09-12 08:35:00,74.1,71.0,29.86,SE,128,0.0,0.0,90,0.00,,,0.00,weatherlink.com 1.10,2013-09-12 12:35:00,
2013-09-12 08:50:00,74.3,71.0,29.85,SE,128,0.0,0.0,90,0.00,,,0.00,weatherlink.com 1.10,2013-09-12 12:50:00,
2013-09-12 09:05:00,75.5,72.0,29.84,ESE,114,0.0,0.0,88,0.00,,,0.00,weatherlink.com 1.10,2013-09-12 13:05:00,
2013-09-12 09:20:00,77.0,72.0,29.84,East,92,0.0,0.0,85,0.00,,,0.00,weatherlink.com 1.10,2013-09-12 13:20:00,
2013-09-12 09:35:00,78.4,72.0,29.84,West,279,1.0,2.0,81,0.00,,,0.00,weatherlink.com 1.10,2013-09-12 13:35:00,
2013-09-12 09:50:00,80.1,72.0,29.84,North,5,0.0,4.0,77,0.00,,,0.00,weatherlink.com 1.10,2013-09-12 13:50:00,
2013-09-12 10:05:00,81.6,72.0,29.83,SE,136,1.0,2.0,73,0.00,,,0.00,weatherlink.com 1.10,2013-09-12 14:05:00,
2013-09-12 10:21:00,82.3,73.0,29.83,NNE,33,0.0,4.0,74,0.00,,,0.00,weatherlink.com 1.10,2013-09-12 14:21:00,
2013-09-12 10:36:00,83.8,73.0,29.82,SW,228,2.0,3.0,69,0.00,,,0.00,weatherlink.com 1.10,2013-09-12 14:36:00,
2013-09-12 10:51:00,84.5,73.0,29.82,SE,140,0.0,2.0,69,0.00,,,0.00,weatherlink.com 1.10,2013-09-12 14:51:00,
2013-09-12 11:06:00,86.1,74.0,29.82,NE,46,2.0,2.0,67,0.00,,,0.00,weatherlink.com 1.10,2013-09-12 15:06:00,
2013-09-12 11:21:00,87.9,74.0,29.82,West,265,1.0,5.0,63,0.00,,,0.00,weatherlink.com 1.10,2013-09-12 15:21:00,
2013-09-12 11:36:00,88.4,73.0,29.81,South,187,1.0,3.0,61,0.00,,,0.00,weatherlink.com 1.10,2013-09-12 15:36:00,
2013-09-12 11:51:00,87.4,74.0,29.80,ENE,78,0.0,2.0,64,0.00,,,0.00,weatherlink.com 1.10,2013-09-12 15:51:00,
2013-09-12 12:06:00,88.1,73.0,29.79,NNW,331,1.0,6.0,62,0.00,,,0.00,weatherlink.com 1.10,2013-09-12 16:06:00,
2013-09-12 12:21:00,88.9,74.0,29.78,NE,34,1.0,5.0,61,0.00,,,0.00,weatherlink.com 1.10,2013-09-12 16:21:00,
2013-09-12 12:36:00,90.1,73.0,29.77,WSW,237,1.0,4.0,57,0.00,,,0.00,weatherlink.com 1.10,2013-09-12 16:36:00,
2013-09-12 12:51:00,91.2,74.0,29.77,NNE,26,0.0,3.0,57,0.00,,,0.00,weatherlink.com 1.10,2013-09-12 16:51:00,
2013-09-12 13:06:00,91.6,73.0,29.76,NE,53,0.0,6.0,54,0.00,,,0.00,weatherlink.com 1.10,2013-09-12 17:06:00,
2013-09-12 13:21:00,91.6,73.0,29.76,WNW,294,0.0,4.0,54,0.00,,,0.00,weatherlink.com 1.10,2013-09-12 17:21:00,
2013-09-12 13:36:00,91.4,72.0,29.75,NW,313,3.0,11.0,53,0.00,,,0.00,weatherlink.com 1.10,2013-09-12 17:36:00,
2013-09-12 13:51:00,90.8,72.0,29.74,WNW,298,2.0,7.0,54,0.00,,,0.00,weatherlink.com 1.10,2013-09-12 17:51:00,
2013-09-12 14:06:00,91.7,73.0,29.73,NW,314,1.0,7.0,54,0.00,,,0.00,weatherlink.com 1.10,2013-09-12 18:06:00,
2013-09-12 14:21:00,92.2,74.0,29.72,NW,315,3.0,3.0,55,0.00,,,0.00,weatherlink.com 1.10,2013-09-12 18:21:00,
2013-09-12 14:36:00,91.5,72.0,29.71,ESE,123,0.0,6.0,53,0.00,,,0.00,weatherlink.com 1.10,2013-09-12 18:36:00,
2013-09-12 14:51:00,92.5,72.0,29.69,WNW,298,1.0,6.0,51,0.00,,,0.00,weatherlink.com 1.10,2013-09-12 18:51:00,
2013-09-12 15:06:00,93.1,72.0,29.68,WNW,298,2.0,4.0,50,0.00,,,0.00,weatherlink.com 1.10,2013-09-12 19:06:00,
2013-09-12 15:22:00,92.7,70.0,29.67,WNW,288,6.0,8.0,47,0.00,,,0.00,weatherlink.com 1.10,2013-09-12 19:22:00,
2013-09-12 15:37:00,91.8,69.0,29.66,West,278,3.0,12.0,48,0.00,,,0.00,weatherlink.com 1.10,2013-09-12 19:37:00,
2013-09-12 15:52:00,92.4,69.0,29.66,West,274,1.0,11.0,47,0.00,,,0.00,weatherlink.com 1.10,2013-09-12 19:52:00,
2013-09-12 16:07:00,90.8,68.0,29.66,NW,320,0.0,6.0,48,0.00,,,0.00,weatherlink.com 1.10,2013-09-12 20:07:00,
2013-09-12 16:22:00,89.3,69.0,29.65,West,277,4.0,5.0,51,0.00,,,0.00,weatherlink.com 1.10,2013-09-12 20:22:00,
2013-09-12 16:37:00,89.7,70.0,29.65,West,270,1.0,4.0,52,0.00,,,0.00,weatherlink.com 1.10,2013-09-12 20:37:00,
2013-09-12 17:07:00,87.7,68.0,29.66,West,278,1.0,6.0,52,0.00,,,0.00,weatherlink.com 1.10,2013-09-12 21:07:00,
2013-09-12 17:22:00,86.6,67.0,29.67,West,273,2.0,5.0,53,0.00,,,0.00,weatherlink.com 1.10,2013-09-12 21:22:00,
2013-09-12 17:37:00,86.2,68.0,29.68,WNW,288,1.0,2.0,54,0.00,,,0.00,weatherlink.com 1.10,2013-09-12 21:37:00,
2013-09-12 17:52:00,85.3,66.0,29.69,WNW,292,1.0,6.0,52,0.00,,,0.00,weatherlink.com 1.10,2013-09-12 21:52:00,
2013-09-12 18:07:00,84.4,65.0,29.68,WNW,286,2.0,6.0,53,0.00,,,0.00,weatherlink.com 1.10,2013-09-12 22:07:00,
2013-09-12 18:22:00,83.9,66.0,29.68,WNW,302,2.0,3.0,55,0.00,,,0.00,weatherlink.com 1.10,2013-09-12 22:22:00,
2013-09-12 18:37:00,83.1,66.0,29.68,WNW,294,0.0,3.0,56,0.00,,,0.00,weatherlink.com 1.10,2013-09-12 22:37:00,
2013-09-12 18:52:00,82.4,67.0,29.68,WNW,294,0.0,0.0,59,0.00,,,0.00,weatherlink.com 1.10,2013-09-12 22:52:00,
2013-09-12 19:07:00,81.3,66.0,29.68,WNW,299,0.0,1.0,60,0.00,,,0.00,weatherlink.com 1.10,2013-09-12 23:07:00,
2013-09-12 19:22:00,79.9,65.0,29.68,WNW,293,2.0,5.0,60,0.00,,,0.00,weatherlink.com 1.10,2013-09-12 23:22:00,
2013-09-12 19:37:00,79.1,65.0,29.69,WNW,296,0.0,2.0,62,0.00,,,0.00,weatherlink.com 1.10,2013-09-12 23:37:00,
2013-09-12 19:52:00,78.2,65.0,29.70,WNW,294,3.0,5.0,64,0.00,,,0.00,weatherlink.com 1.10,2013-09-12 23:52:00,
2013-09-12 20:07:00,77.6,64.0,29.70,WNW,287,3.0,4.0,64,0.00,,,0.00,weatherlink.com 1.10,2013-09-13 00:07:00,
2013-09-12 20:22:00,77.2,65.0,29.70,WNW,292,3.0,6.0,65,0.00,,,0.00,weatherlink.com 1.10,2013-09-13 00:22:00,
2013-09-12 20:37:00,76.7,64.0,29.70,WNW,284,2.0,5.0,66,0.00,,,0.00,weatherlink.com 1.10,2013-09-13 00:37:00,
2013-09-12 20:52:00,76.2,65.0,29.70,WNW,284,0.0,3.0,68,0.00,,,0.00,weatherlink.com 1.10,2013-09-13 00:52:00,
2013-09-12 21:07:00,75.7,66.0,29.70,WNW,283,1.0,2.0,72,0.00,,,0.00,weatherlink.com 1.10,2013-09-13 01:07:00,
2013-09-12 21:22:00,74.7,67.0,29.70,WNW,296,1.0,3.0,76,0.00,,,0.00,weatherlink.com 1.10,2013-09-13 01:22:00,
2013-09-12 21:38:00,73.9,66.0,29.70,WNW,296,1.0,2.0,76,0.00,,,0.00,weatherlink.com 1.10,2013-09-13 01:38:00,
2013-09-12 21:52:00,73.5,66.0,29.70,WNW,296,0.0,1.0,78,0.00,,,0.00,weatherlink.com 1.10,2013-09-13 01:52:00,
2013-09-12 22:07:00,73.2,66.0,29.70,WNW,296,0.0,2.0,79,0.00,,,0.00,weatherlink.com 1.10,2013-09-13 02:07:00,
2013-09-12 22:22:00,73.0,66.0,29.70,WNW,296,0.0,4.0,79,0.00,,,0.00,weatherlink.com 1.10,2013-09-13 02:22:00,
2013-09-12 22:37:00,72.9,67.0,29.70,WNW,296,0.0,0.0,81,0.00,,,0.00,weatherlink.com 1.10,2013-09-13 02:37:00,
2013-09-12 22:52:00,72.6,66.0,29.70,WNW,296,0.0,0.0,80,0.00,,,0.00,weatherlink.com 1.10,2013-09-13 02:52:00,
2013-09-12 23:07:00,72.4,66.0,29.69,WNW,296,1.0,2.0,81,0.00,,,0.00,weatherlink.com 1.10,2013-09-13 03:07:00,
2013-09-12 23:22:00,72.0,66.0,29.69,WNW,296,0.0,2.0,82,0.00,,,0.00,weatherlink.com 1.10,2013-09-13 03:22:00,
2013-09-12 23:37:00,71.8,66.0,29.68,WNW,296,0.0,1.0,82,0.00,,,0.00,weatherlink.com 1.10,2013-09-13 03:37:00,
2013-09-12 23:52:00,71.7,66.0,29.68,WNW,296,0.0,0.0,83,0.00,,,0.00,weatherlink.com 1.10,2013-09-13 03:52:00,